Cosmos 1939 Rocket - Orbit

View from above orbital plane
View from above orbital plane
View from above satellite
View from above satellite

Ground track
Ground track

The orbit data is extracted from the following two-line orbital elements,

1 19046U 88032B   13139.15101846  .00001831  00000-0  15794-3 0  5352
2 19046 097.7043 194.6551 0034821 344.5464 015.4692 14.98085885349189
Epoch (UTC): 19 May 2013 03:37:27
Eccentricity: 0.0034821
inclination: 97.7043°
perigee height: 548 km
apogee height: 597 km
right ascension of ascending node: 194.6551°
argument of perigee: 344.5464°
revolutions per day: 14.98085885
mean anomaly at epoch: 15.4692°
orbit number at epoch: 34918

The dashed part of the orbit path shows where the satellite is in the earth's shadow,  

Developed and maintained by Chris Peat, Heavens-Above GmbH. Please read the updated FAQ before sending e-mail. Imprint. DLR